When you browse on this site, cookies collect data to enhance your experience and personalize the content and advertising you see.
Visit our Privacy Policy to learn more. By continuing to use the site, you agree to this use of cookies and data.
  • En España
  • Lista de países
  • Para 7 días
  • Temperatura del agua
  • Mapa Satelital
  • El tiempo en el mapa
  • Informadores
  • user-avatar
    Iniciar sesión

    Tiempo cada hora Quito

    Hoy, 18 Junio, Martes

    Tiempo Temperatura Precipitaciones Viento Presión Humedad
    00:00 +12°C° 0 mm 1 mps 624 mmHg 50%
    01:00 +12°C° 0 mm 1 mps 623 mmHg 54%
    02:00 +11°C° 0 mm 1 mps 623 mmHg 56%
    03:00 +11°C° 0 mm 1 mps 623 mmHg 58%
    04:00 +10°C° 0 mm 1 mps 623 mmHg 60%
    05:00 +11°C° 0 mm 1 mps 623 mmHg 60%
    06:00 +11°C° 0 mm 1 mps 624 mmHg 61%
    07:00 +11°C° 0 mm 1 mps 625 mmHg 61%
    08:00 +14°C° 0 mm 2 mps 625 mmHg 51%
    09:00 +17°C° 0 mm 3 mps 626 mmHg 42%
    10:00 +20°C° 0 mm 4 mps 627 mmHg 33%
    11:00 +22°C° 0 mm 3 mps 627 mmHg 30%
    12:00 +24°C° 0 mm 3 mps 626 mmHg 28%
    13:00 +25°C° 0 mm 3 mps 626 mmHg 26%
    14:00 +25°C° 0 mm 2 mps 626 mmHg 25%
    15:00 +25°C° 0 mm 2 mps 625 mmHg 25%
    16:00 +24°C° 0 mm 2 mps 625 mmHg 25%
    17:00 +21°C° 0 mm 1 mps 624 mmHg 32%
    18:00 +18°C° 0 mm 1 mps 624 mmHg 39%
    19:00 +14°C° 0 mm 1 mps 623 mmHg 46%
    20:00 +14°C° 0 mm 1 mps 624 mmHg 47%
    21:00 +13°C° 0 mm 1 mps 624 mmHg 49%
    22:00 +13°C° 0 mm 1 mps 624 mmHg 50%
    23:00 +12°C° 0 mm 1 mps 624 mmHg 54%

    Mañana, 19 Junio, Miércoles

    Tiempo Temperatura Precipitaciones Viento Presión Humedad
    00:00 +11°C° 0 mm 1 mps 624 mmHg 57%
    01:00 +10°C° 0 mm 1 mps 623 mmHg 61%
    02:00 +10°C° 0 mm 1 mps 623 mmHg 62%
    03:00 +10°C° 0 mm 1 mps 623 mmHg 64%
    04:00 +9°C° 0 mm 1 mps 623 mmHg 66%
    05:00 +10°C° 0 mm 1 mps 623 mmHg 65%
    06:00 +10°C° 0 mm 1 mps 624 mmHg 64%
    07:00 +11°C° 0 mm 1 mps 625 mmHg 63%
    08:00 +14°C° 0 mm 2 mps 625 mmHg 54%
    09:00 +17°C° 0 mm 3 mps 626 mmHg 44%
    10:00 +20°C° 0 mm 4 mps 627 mmHg 35%
    11:00 +21°C° 0 mm 4 mps 627 mmHg 31%
    12:00 +22°C° 0 mm 3 mps 627 mmHg 28%
    13:00 +25°C° 0 mm 3 mps 627 mmHg 25%
    14:00 +25°C° 0 mm 3 mps 626 mmHg 25%
    15:00 +24°C° 0 mm 3 mps 626 mmHg 25%
    16:00 +24°C° 0 mm 2 mps 625 mmHg 26%
    17:00 +20°C° 0 mm 2 mps 625 mmHg 32%
    18:00 +18°C° 0 mm 1 mps 624 mmHg 38%
    19:00 +14°C° 0 mm 1 mps 624 mmHg 44%
    20:00 +14°C° 0 mm 1 mps 624 mmHg 46%
    21:00 +13°C° 0 mm 1 mps 624 mmHg 47%
    22:00 +12°C° 0 mm 1 mps 624 mmHg 49%
    23:00 +12°C° 0 mm 1 mps 624 mmHg 51%

    Pasado mañana, 20 Junio, Jueves

    Tiempo Temperatura Precipitaciones Viento Presión Humedad
    00:00 +11°C° 0 mm 1 mps 624 mmHg 54%
    01:00 +11°C° 0 mm 1 mps 624 mmHg 56%
    02:00 +10°C° 0 mm 1 mps 624 mmHg 58%
    03:00 +10°C° 0 mm 1 mps 623 mmHg 61%
    04:00 +9°C° 0 mm 1 mps 623 mmHg 63%
    05:00 +10°C° 0 mm 1 mps 623 mmHg 61%
    06:00 +10°C° 0 mm 1 mps 624 mmHg 59%
    07:00 +11°C° 0 mm 1 mps 625 mmHg 57%
    08:00 +14°C° 0 mm 2 mps 625 mmHg 49%
    09:00 +17°C° 0 mm 3 mps 626 mmHg 40%
    10:00 +20°C° 0 mm 3 mps 627 mmHg 32%
    11:00 +22°C° 0 mm 3 mps 627 mmHg 29%
    12:00 +24°C° 0 mm 3 mps 626 mmHg 26%
    13:00 +25°C° 0 mm 2 mps 626 mmHg 23%
    14:00 +25°C° 0 mm 2 mps 626 mmHg 23%
    15:00 +25°C° 0 mm 2 mps 625 mmHg 23%
    16:00 +25°C° 0 mm 2 mps 625 mmHg 23%
    17:00 +22°C° 0 mm 1 mps 624 mmHg 29%
    18:00 +19°C° 0 mm 1 mps 624 mmHg 36%
    19:00 +14°C° 0 mm 1 mps 623 mmHg 43%
    20:00 +14°C° 0 mm 1 mps 624 mmHg 44%
    21:00 +14°C° 0 mm 1 mps 624 mmHg 44%
    22:00 +13°C° 0 mm 1 mps 624 mmHg 45%
    23:00 +13°C° 0 mm 1 mps 624 mmHg 48%

    21 Junio, Viernes

    Tiempo Temperatura Precipitaciones Viento Presión Humedad
    00:00 +12°C° 0 mm 1 mps 624 mmHg 50%
    01:00 +12°C° 0 mm 1 mps 624 mmHg 52%
    02:00 +11°C° 0 mm 1 mps 623 mmHg 56%
    03:00 +11°C° 0 mm 1 mps 623 mmHg 60%
    04:00 +10°C° 0 mm 1 mps 623 mmHg 64%
    05:00 +11°C° 0 mm 1 mps 623 mmHg 64%
    06:00 +11°C° 0 mm 1 mps 624 mmHg 65%
    07:00 +11°C° 0 mm 1 mps 624 mmHg 65%
    08:00 +14°C° 0 mm 2 mps 625 mmHg 55%
    09:00 +17°C° 0 mm 3 mps 626 mmHg 45%
    10:00 +21°C° 0 mm 3 mps 627 mmHg 34%
    11:00 +22°C° 0 mm 3 mps 626 mmHg 31%
    12:00 +25°C° 0 mm 2 mps 626 mmHg 28%
    13:00 +26°C° 0 mm 2 mps 626 mmHg 24%
    14:00 +26°C° 0 mm 2 mps 625 mmHg 24%
    15:00 +26°C° 0 mm 2 mps 625 mmHg 24%
    16:00 +25°C° 0 mm 2 mps 624 mmHg 23%
    17:00 +22°C° 0 mm 1 mps 624 mmHg 28%
    18:00 +20°C° 0 mm 1 mps 623 mmHg 33%
    19:00 +16°C° 0 mm 1 mps 623 mmHg 38%
    20:00 +15°C° 0 mm 1 mps 623 mmHg 39%
    21:00 +15°C° 0 mm 1 mps 623 mmHg 40%
    22:00 +14°C° 0 mm 1 mps 623 mmHg 41%
    23:00 +14°C° 0 mm 1 mps 623 mmHg 44%

    22 Junio, Sábado

    Tiempo Temperatura Precipitaciones Viento Presión Humedad
    00:00 +13°C° 0 mm 1 mps 623 mmHg 47%
    01:00 +12°C° 0 mm 2 mps 622 mmHg 49%
    02:00 +11°C° 0 mm 1 mps 622 mmHg 52%
    03:00 +11°C° 0 mm 1 mps 622 mmHg 55%
    04:00 +10°C° 0 mm 1 mps 621 mmHg 58%
    05:00 +10°C° 0 mm 1 mps 622 mmHg 58%
    06:00 +11°C° 0 mm 1 mps 623 mmHg 58%
    07:00 +11°C° 0 mm 1 mps 623 mmHg 58%
    08:00 +14°C° 0 mm 2 mps 624 mmHg 48%
    09:00 +18°C° 0 mm 2 mps 625 mmHg 39%
    10:00 +21°C° 0 mm 3 mps 626 mmHg 30%
    11:00 +24°C° 0 mm 2 mps 626 mmHg 27%
    12:00 +26°C° 0 mm 2 mps 626 mmHg 24%
    13:00 +28°C° 0 mm 1 mps 626 mmHg 22%
    14:00 +27°C° 0 mm 1 mps 625 mmHg 22%
    15:00 +26°C° 0 mm 1 mps 624 mmHg 22%
    16:00 +26°C° 0 mm 2 mps 624 mmHg 22%
    17:00 +23°C° 0 mm 1 mps 623 mmHg 27%
    18:00 +20°C° 0 mm 1 mps 623 mmHg 32%
    19:00 +16°C° 0 mm 1 mps 622 mmHg 38%
    20:00 +15°C° 0 mm 1 mps 622 mmHg 38%
    21:00 +14°C° 0 mm 1 mps 622 mmHg 39%
    22:00 +13°C° 0 mm 0 mps 622 mmHg 39%
    23:00 +12°C° 0 mm 0 mps 622 mmHg 39%

    23 Junio, Domingo

    Tiempo Temperatura Precipitaciones Viento Presión Humedad
    00:00 +12°C° 0 mm 0 mps 622 mmHg 40%
    01:00 +13°C° 0 mm 1 mps 622 mmHg 40%
    02:00 +12°C° 0 mm 1 mps 622 mmHg 42%
    03:00 +11°C° 0 mm 1 mps 621 mmHg 44%
    04:00 +10°C° 0 mm 1 mps 621 mmHg 47%
    05:00 +11°C° 0 mm 1 mps 622 mmHg 46%
    06:00 +11°C° 0 mm 1 mps 622 mmHg 46%
    07:00 +11°C° 0 mm 0 mps 623 mmHg 46%
    08:00 +15°C° 0 mm 1 mps 624 mmHg 38%
    09:00 +19°C° 0 mm 2 mps 625 mmHg 31%
    10:00 +23°C° 0 mm 2 mps 626 mmHg 24%
    11:00 +24°C° 0 mm 2 mps 626 mmHg 22%
    12:00 +26°C° 0 mm 2 mps 626 mmHg 21%
    13:00 +27°C° 0 mm 2 mps 625 mmHg 20%
    14:00 +26°C° 0 mm 2 mps 625 mmHg 20%
    15:00 +26°C° 0 mm 2 mps 624 mmHg 20%
    16:00 +26°C° 0 mm 2 mps 624 mmHg 21%
    17:00 +23°C° 0 mm 2 mps 623 mmHg 26%
    18:00 +20°C° 0 mm 1 mps 622 mmHg 31%
    19:00 +15°C° 0 mm 1 mps 622 mmHg 36%
    20:00 +15°C° 0 mm 1 mps 622 mmHg 36%
    21:00 +15°C° 0 mm 1 mps 622 mmHg 36%
    22:00 +13°C° 0 mm 0 mps 623 mmHg 37%
    23:00 +13°C° 0 mm 0 mps 622 mmHg 37%
    Mostrar más